FW7319 Weather Reports


time (UTC)temp
F
wind
direction
speed
knots
gust
knots
rain 1hr
in
rain 24hr
in
rain mn
in
humidity
%
barometer
mb
20260507191600 48 355 0.0 0.0 0.00 0.00 0.00 74 1018.8
20260507190111 49 355 0.0 0.0 0.00 0.00 0.00 73 1018.8
20260507184607 50 355 0.0 0.0 0.00 0.00 0.00 72 1018.5
20260507183000 51 355 0.0 0.0 0.00 0.00 0.00 71 1018.6
20260507181501 52 355 0.0 0.0 0.00 0.00 0.00 70 1018.5
20260507180100 52 355 0.0 0.0 0.00 0.00 0.00 69 1018.6
20260507174602 53 355 0.0 0.9 0.00 0.00 0.00 69 1018.4
20260507173101 53 355 0.0 1.7 0.00 0.00 0.00 67 1018.2
20260507171606 53 355 0.0 1.7 0.00 0.00 0.00 67 1018.2
20260507170117 53 348 0.0 1.7 0.00 0.00 0.00 65 1018.1
20260507164604 53 355 0.0 1.7 0.00 0.00 0.00 66 1018.0
20260507163004 53 5 0.0 2.6 0.00 0.00 0.00 66 1017.9
20260507161622 53 332 0.0 1.7 0.00 0.00 0.00 65 1018.0
20260507160011 53 5 0.0 1.7 0.00 0.00 0.00 65 1018.2
20260507154629 53 360 0.9 2.6 0.00 0.00 0.00 65 1018.1
20260507153108 53 11 0.9 2.6 0.00 0.00 0.00 63 1018.1
20260507151515 53 17 0.0 1.7 0.00 0.00 0.00 64 1018.0
20260507150110 54 107 0.0 1.7 0.00 0.00 0.00 64 1017.9
20260507144552 54 22 0.9 3.5 0.00 0.00 0.00 64 1017.8
20260507143140 54 20 1.7 3.5 0.00 0.00 0.00 64 1018.0
20260507141615 54 18 0.9 3.5 0.00 0.00 0.00 63 1017.9
20260507140005 55 11 1.7 3.5 0.00 0.00 0.00 59 1017.9
20260507134542 55 23 1.7 4.3 0.00 0.00 0.00 60 1017.9
20260507133105 55 16 1.7 4.3 0.00 0.00 0.00 58 1017.8
20260507131548 56 23 1.7 3.5 0.00 0.00 0.00 56 1017.7
20260507130143 56 339 0.0 3.5 0.00 0.00 0.00 58 1017.8
20260507124621 56 11 0.0 3.5 0.00 0.00 0.00 54 1017.6
20260507123157 56 350 0.9 3.5 0.00 0.00 0.00 55 1017.6
20260507121502 56 22 0.9 5.2 0.00 0.00 0.00 58 1017.6
20260507120050 55 323 0.9 3.5 0.00 0.00 0.00 56 1017.5
20260507114552 56 329 0.0 2.6 0.00 0.00 0.00 62 1017.4
20260507113143 56 15 0.0 3.5 0.00 0.00 0.00 61 1017.5
20260507111600 56 23 0.9 5.2 0.00 0.00 0.00 62 1017.4
20260507110149 56 300 0.9 3.5 0.00 0.00 0.00 62 1017.5
20260507104623 56 355 0.0 3.5 0.00 0.00 0.00 64 1017.4
20260507103155 55 360 0.9 4.3 0.00 0.00 0.00 59 1017.4
20260507101624 56 332 0.0 2.6 0.00 0.00 0.00 59 1017.3
20260507100056 55 355 0.0 2.6 0.00 0.00 0.00 54 1017.1
20260507094626 55 314 0.0 2.6 0.00 0.00 0.00 56 1016.9
20260507093040 55 5 0.9 4.3 0.00 0.00 0.00 59 1016.7
20260507091628 54 11 1.7 3.5 0.00 0.00 0.00 59 1016.6
20260507090006 54 330 0.0 2.6 0.00 0.00 0.00 64 1016.8
20260507084622 53 346 0.0 1.7 0.00 0.00 0.00 66 1016.7
20260507083010 53 34 0.9 2.6 0.00 0.00 0.00 67 1016.7
20260507081501 52 286 0.9 3.5 0.00 0.00 0.00 69 1016.6
20260507080014 52 276 0.0 0.9 0.00 0.00 0.00 72 1016.4
20260507074505 52 182 0.0 0.9 0.00 0.00 0.00 70 1016.3
20260507073100 51 264 0.0 1.7 0.00 0.00 0.00 73 1016.1
20260507071545 51 265 0.0 0.9 0.00 0.00 0.00 73 1016.1
20260507070141 51 244 0.0 1.7 0.00 0.00 0.00 73 1016.0
20260507064604 50 245 0.0 0.9 0.00 0.00 0.00 74 1015.8
20260507063142 50 246 0.0 0.9 0.00 0.00 0.00 75 1015.8
20260507061547 48 202 0.0 3.5 0.00 0.00 0.00 78 1015.5
20260507060057 47 223 0.0 2.6 0.00 0.00 0.00 82 1015.6
20260507054613 45 225 0.0 1.7 0.00 0.00 0.00 86 1015.4
20260507053140 44 219 0.0 0.9 0.00 0.00 0.00 91 1015.5
20260507051607 41 219 0.0 0.9 0.00 0.00 0.00 91 1015.4
20260507050152 39 218 0.0 0.0 0.00 0.00 0.00 90 1015.2
20260507044618 38 218 0.0 0.0 0.00 0.00 0.00 88 1015.1
20260507043009 37 218 0.0 0.0 0.00 0.00 0.00 88 1014.8
20260507041508 37 218 0.0 0.0 0.00 0.00 0.00 87 1014.6
20260507040050 36 218 0.0 0.0 0.00 0.00 0.00 86 1014.5
20260507034518 37 218 0.0 0.0 0.00 0.00 0.00 86 1014.5
20260507033108 37 218 0.0 0.0 0.00 0.00 0.00 86 1014.5
20260507031601 37 218 0.0 0.0 0.00 0.00 0.00 85 1014.5
20260507030154 37 218 0.0 0.0 0.00 0.00 0.00 85 1014.5
20260507024633 38 218 0.0 0.0 0.00 0.00 0.00 85 1014.3
20260507023051 38 218 0.0 0.0 0.00 0.00 0.00 84 1014.2
20260507021549 38 218 0.0 0.0 0.00 0.00 0.00 83 1014.1
20260507020109 39 218 0.0 0.0 0.00 0.00 0.00 83 1014.1
20260507014604 39 218 0.0 0.0 0.00 0.00 0.00 82 1014.1
20260507013106 40 218 0.0 0.0 0.00 0.00 0.00 82 1014.0
20260507011550 41 218 0.0 0.0 0.00 0.00 0.00 82 1014.0
20260507010104 41 218 0.0 0.0 0.00 0.00 0.00 81 1014.1
20260507004548 42 218 0.0 0.0 0.00 0.00 0.00 81 1014.1
20260507003106 43 218 0.0 0.9 0.00 0.00 0.00 81 1014.0
20260507001553 43 218 0.0 0.9 0.00 0.00 0.00 81 1014.0
20260507000109 43 224 0.0 1.7 0.00 0.00 0.00 81 1014.0
20260506234614 43 200 0.0 2.6 0.00 0.00 0.00 80 1013.7
20260506233154 43 192 0.0 0.9 0.00 0.00 0.00 78 1013.8
20260506231517 43 229 0.0 0.9 0.00 0.00 0.00 77 1013.7
20260506230151 43 212 0.0 1.7 0.00 0.00 0.00 77 1013.7
20260506224608 43 235 0.0 0.9 0.00 0.00 0.00 76 1013.7
20260506223147 43 165 0.0 0.9 0.00 0.00 0.00 76 1013.6
20260506221607 44 165 0.0 0.9 0.00 0.00 0.00 75 1013.5
20260506220113 44 161 0.0 0.9 0.00 0.00 0.00 73 1013.4
20260506214604 45 161 0.0 0.9 0.00 0.00 0.00 73 1013.5
20260506213001 45 153 0.0 0.9 0.00 0.00 0.00 73 1013.3
20260506211633 45 250 0.0 0.0 0.00 0.00 0.00 71 1013.3
20260506210007 45 250 0.0 0.0 0.00 0.00 0.00 71 1013.2
20260506204503 46 250 0.0 0.9 0.00 0.00 0.00 69 1013.1
20260506203105 46 250 0.0 1.7 0.00 0.00 0.00 68 1013.0
20260506201600 47 264 0.0 0.9 0.00 0.00 0.00 66 1012.9
20260506200104 47 265 0.0 0.9 0.00 0.00 0.00 66 1012.9
20260506194628 47 265 0.0 0.9 0.00 0.00 0.00 66 1012.7
20260506193112 47 328 0.0 0.9 0.00 0.00 0.00 67 1012.6